| time (UTC) | temp C | wind direction | speed KPH | gust KPH | rain 1hr cm | rain 24hr cm | rain mn cm | humidity % | barometer mb |
| 20260901161609 | 29 | 247 | 12.9 | 0.0 | 0.00 | 0.00 | 0.00 | 70 | 990.1 |
| 20260901160110 | 29 | 250 | 11.3 | 0.0 | 0.00 | 0.00 | 0.00 | 70 | 990.1 |
| 20260901154609 | 28 | 247 | 12.9 | 0.0 | 0.00 | 0.00 | 0.00 | 81 | 989.9 |
| 20260901153104 | 28 | 248 | 11.3 | 0.0 | 0.00 | 0.00 | 0.00 | 81 | 989.9 |
| 20260901151606 | 27 | 257 | 8.0 | 0.0 | 0.00 | 0.00 | 0.00 | 81 | 989.9 |
| 20260901150105 | 27 | 254 | 9.7 | 0.0 | 0.00 | 0.00 | 0.00 | 81 | 989.9 |
| 20260901144604 | 26 | 248 | 11.3 | 0.0 | 0.00 | 0.00 | 0.00 | 88 | 989.1 |
| 20260901143110 | 26 | 243 | 8.0 | 0.0 | 0.00 | 0.00 | 0.00 | 85 | 990.3 |
| 20260901141611 | 26 | 236 | 8.0 | 0.0 | 0.00 | 0.00 | 0.00 | 81 | 990.8 |
| 20260901140110 | 25 | 228 | 8.0 | 0.0 | 0.00 | 0.00 | 0.00 | 81 | 990.8 |
| 20260901134611 | 25 | 243 | 9.7 | 0.0 | 0.00 | 0.00 | 0.00 | 87 | 990.0 |
| 20260901133110 | 24 | 232 | 8.0 | 0.0 | 0.00 | 0.00 | 0.00 | 87 | 990.0 |
| 20260901131609 | 23 | 212 | 8.0 | 0.0 | 0.00 | 0.00 | 0.00 | 87 | 990.0 |
| 20260901130113 | 23 | 195 | 9.7 | 0.0 | 0.00 | 0.00 | 0.00 | 87 | 990.0 |
| 20260901124630 | 22 | 184 | 9.7 | 0.0 | 0.00 | 0.00 | 0.00 | 92 | 989.4 |
| 20260901123111 | 22 | 170 | 6.4 | 0.0 | 0.00 | 0.00 | 0.00 | 91 | 989.2 |
| 20260901121609 | 21 | 158 | 8.0 | 0.0 | 0.00 | 0.00 | 0.00 | 91 | 989.2 |
| 20260901120117 | 20 | 153 | 6.4 | 0.0 | 0.00 | 0.00 | 0.00 | 91 | 989.2 |
| 20260901114610 | 20 | 153 | 6.4 | 0.0 | 0.00 | 0.00 | 0.00 | 89 | 988.4 |
| 20260901113115 | 20 | 156 | 6.4 | 0.0 | 0.00 | 0.00 | 0.00 | 87 | 988.9 |
| 20260901111610 | 20 | 164 | 6.4 | 0.0 | 0.00 | 0.00 | 0.00 | 87 | 988.9 |
| 20260901110114 | 20 | 172 | 6.4 | 0.0 | 0.00 | 0.00 | 0.00 | 87 | 988.9 |
| 20260901104613 | 20 | 168 | 8.0 | 0.0 | 0.00 | 0.00 | 0.00 | 84 | 989.3 |
| 20260901103114 | 20 | 158 | 8.0 | 0.0 | 0.00 | 0.00 | 0.00 | 84 | 989.3 |
| 20260901101617 | 20 | 166 | 8.0 | 0.0 | 0.00 | 0.00 | 0.00 | 84 | 989.3 |
| 20260901100117 | 20 | 158 | 8.0 | 0.0 | 0.00 | 0.00 | 0.00 | 84 | 989.3 |
| 20260901094610 | 21 | 167 | 6.4 | 0.0 | 0.00 | 0.00 | 0.00 | 84 | 988.2 |
| 20260901093115 | 21 | 167 | 8.0 | 0.0 | 0.00 | 0.00 | 0.00 | 85 | 988.6 |
| 20260901091616 | 21 | 162 | 6.4 | 0.0 | 0.00 | 0.00 | 0.00 | 85 | 988.6 |
| 20260901090115 | 21 | 164 | 6.4 | 0.0 | 0.00 | 0.00 | 0.00 | 85 | 988.6 |
| 20260901084609 | 21 | 177 | 6.4 | 0.0 | 0.00 | 0.00 | 0.00 | 86 | 988.2 |
| 20260901083114 | 21 | 177 | 6.4 | 0.0 | 0.00 | 0.00 | 0.00 | 85 | 987.8 |
| 20260901081615 | 21 | 187 | 8.0 | 0.0 | 0.00 | 0.00 | 0.00 | 85 | 987.8 |
| 20260901080111 | 21 | 185 | 6.4 | 0.0 | 0.00 | 0.00 | 0.00 | 85 | 988.3 |
| 20260901074615 | 21 | 190 | 8.0 | 0.0 | 0.00 | 0.00 | 0.00 | 87 | 988.0 |
| 20260901073114 | 21 | 189 | 8.0 | 0.0 | 0.00 | 0.00 | 0.00 | 87 | 988.0 |
| 20260901071609 | 21 | 192 | 8.0 | 0.0 | 0.00 | 0.00 | 0.00 | 87 | 988.0 |
| 20260901070109 | 21 | 184 | 4.8 | 0.0 | 0.00 | 0.00 | 0.00 | 87 | 988.0 |
| 20260901064616 | 21 | 212 | 3.2 | 0.0 | 0.00 | 0.00 | 0.00 | 88 | 988.2 |
| 20260901063103 | 21 | 225 | 3.2 | 0.0 | 0.00 | 0.00 | 0.00 | 88 | 988.2 |
| 20260901061610 | 21 | 205 | 4.8 | 0.0 | 0.00 | 0.00 | 0.00 | 88 | 988.2 |
| 20260901060115 | 21 | 186 | 6.4 | 0.0 | 0.00 | 0.00 | 0.00 | 88 | 988.2 |
| 20260901054614 | 21 | 192 | 8.0 | 0.0 | 0.00 | 0.00 | 0.00 | 84 | 988.5 |
| 20260901053115 | 22 | 189 | 8.0 | 0.0 | 0.00 | 0.00 | 0.00 | 86 | 988.2 |
| 20260901051609 | 22 | 200 | 6.4 | 0.0 | 0.00 | 0.00 | 0.00 | 86 | 988.2 |
| 20260901050120 | 22 | 201 | 8.0 | 0.0 | 0.00 | 0.00 | 0.00 | 86 | 988.2 |
| 20260901044614 | 22 | 196 | 8.0 | 0.0 | 0.00 | 0.00 | 0.00 | 81 | 988.5 |
| 20260901043109 | 22 | 225 | 4.8 | 0.0 | 0.00 | 0.00 | 0.00 | 84 | 988.2 |
| 20260901041613 | 22 | 231 | 4.8 | 0.0 | 0.00 | 0.00 | 0.00 | 84 | 988.2 |
| 20260901040118 | 22 | 235 | 3.2 | 0.0 | 0.00 | 0.00 | 0.00 | 84 | 988.2 |
| 20260901034613 | 22 | 230 | 4.8 | 0.0 | 0.00 | 0.00 | 0.00 | 82 | 988.2 |
| 20260901033113 | 22 | 232 | 4.8 | 0.0 | 0.00 | 0.00 | 0.00 | 85 | 988.4 |
| 20260901031613 | 22 | 216 | 8.0 | 0.0 | 0.00 | 0.00 | 0.00 | 85 | 988.3 |
| 20260901030113 | 22 | 211 | 8.0 | 0.0 | 0.00 | 0.00 | 0.00 | 85 | 988.3 |
| 20260901024613 | 22 | 221 | 6.4 | 0.0 | 0.00 | 0.00 | 0.00 | 82 | 989.5 |
| 20260901023113 | 23 | 208 | 8.0 | 0.0 | 0.00 | 0.00 | 0.00 | 85 | 989.0 |
| 20260901021612 | 23 | 198 | 11.3 | 0.0 | 0.00 | 0.00 | 0.00 | 85 | 988.9 |
| 20260901020118 | 23 | 206 | 9.7 | 0.0 | 0.00 | 0.00 | 0.00 | 85 | 988.9 |
| 20260901014612 | 23 | 195 | 9.7 | 0.0 | 0.00 | 0.00 | 0.00 | 85 | 988.9 |
| 20260901013110 | 23 | 202 | 9.7 | 0.0 | 0.00 | 0.00 | 0.00 | 85 | 988.9 |
| 20260901011613 | 22 | 230 | 4.8 | 0.0 | 0.00 | 0.00 | 0.00 | 85 | 988.8 |
| 20260901010115 | 23 | 209 | 8.0 | 0.0 | 0.00 | 0.00 | 0.00 | 85 | 988.8 |
| 20260901004612 | 23 | 212 | 8.0 | 0.0 | 0.00 | 0.00 | 0.00 | 80 | 988.7 |
| 20260901003111 | 23 | 242 | 6.4 | 0.0 | 0.00 | 0.00 | 0.00 | 81 | 988.5 |
| 20260901001611 | 24 | 223 | 6.4 | 0.0 | 0.00 | 0.00 | 0.00 | 81 | 988.5 |
| 20260901000110 | 25 | 234 | 8.0 | 0.0 | 0.00 | 0.00 | 0.00 | 81 | 988.5 |
| 20260831234614 | 25 | 222 | 8.0 | 0.0 | 0.00 | 0.05 | 0.05 | 75 | 988.4 |
| 20260831233113 | 25 | 218 | 8.0 | 0.0 | 0.00 | 0.05 | 0.05 | 68 | 988.2 |
| 20260831231614 | 26 | 217 | 12.9 | 0.0 | 0.00 | 0.05 | 0.05 | 68 | 988.2 |
| 20260831230115 | 26 | 200 | 14.5 | 0.0 | 0.00 | 0.05 | 0.05 | 68 | 988.2 |
| 20260831224613 | 27 | 202 | 16.1 | 0.0 | 0.00 | 0.05 | 0.05 | 64 | 988.7 |
| 20260831223115 | 27 | 210 | 17.7 | 0.0 | 0.00 | 0.05 | 0.05 | 62 | 989.1 |
| 20260831221610 | 28 | 212 | 19.3 | 0.0 | 0.00 | 0.05 | 0.05 | 62 | 989.1 |
| 20260831220114 | 28 | 210 | 20.9 | 0.0 | 0.00 | 0.05 | 0.05 | 62 | 989.1 |
| 20260831214613 | 28 | 205 | 20.9 | 0.0 | 0.00 | 0.05 | 0.05 | 63 | 989.6 |
| 20260831213110 | 28 | 201 | 20.9 | 0.0 | 0.00 | 0.05 | 0.05 | 56 | 989.1 |
| 20260831211612 | 29 | 203 | 22.5 | 0.0 | 0.00 | 0.05 | 0.05 | 56 | 989.2 |
| 20260831210113 | 29 | 201 | 22.5 | 0.0 | 0.00 | 0.05 | 0.05 | 56 | 989.2 |
| 20260831204610 | 29 | 200 | 20.9 | 0.0 | 0.03 | 0.05 | 0.05 | 63 | 990.2 |
| 20260831203110 | 29 | 200 | 20.9 | 0.0 | 0.03 | 0.05 | 0.05 | 80 | 989.8 |
| 20260831201612 | 27 | 193 | 16.1 | 0.0 | 0.00 | 0.03 | 0.03 | 80 | 989.5 |
| 20260831200113 | 25 | 180 | 14.5 | 0.0 | 0.00 | 0.03 | 0.03 | 74 | 990.0 |
| 20260831194613 | 25 | 189 | 16.1 | 0.0 | 0.00 | 0.03 | 0.03 | 72 | 990.7 |
| 20260831193112 | 25 | 211 | 19.3 | 0.0 | 0.00 | 0.03 | 0.03 | 72 | 990.7 |
| 20260831191612 | 27 | 243 | 8.0 | 0.0 | 0.08 | 0.08 | 0.08 | 72 | 990.7 |
| 20260831190114 | 26 | 176 | 11.3 | 0.0 | 0.08 | 0.08 | 0.08 | 63 | 990.1 |
| 20260831184610 | 28 | 204 | 19.3 | 0.0 | 0.00 | 0.00 | 0.00 | 64 | 990.4 |
| 20260831183111 | 28 | 187 | 19.3 | 0.0 | 0.00 | 0.00 | 0.00 | 64 | 990.4 |
| 20260831181611 | 28 | 180 | 19.3 | 0.0 | 0.00 | 0.00 | 0.00 | 64 | 990.4 |
| 20260831180112 | 28 | 184 | 17.7 | 0.0 | 0.00 | 0.00 | 0.00 | 64 | 990.4 |
| 20260831174611 | 28 | 198 | 19.3 | 0.0 | 0.00 | 0.00 | 0.00 | 67 | 991.3 |
| 20260831173111 | 28 | 197 | 19.3 | 0.0 | 0.00 | 0.00 | 0.00 | 64 | 990.2 |
| 20260831171611 | 27 | 200 | 20.9 | 0.0 | 0.00 | 0.00 | 0.00 | 64 | 990.2 |
| 20260831170112 | 27 | 199 | 19.3 | 0.0 | 0.00 | 0.00 | 0.00 | 64 | 990.2 |
| 20260831164611 | 27 | 197 | 17.7 | 0.0 | 0.00 | 0.00 | 0.00 | 71 | 991.9 |
| 20260831163311 | -17 | 0 | 0.0 | 0.0 | 0.00 | 0.00 | 0.00 | 100 |